Showing default

COSMOS 2549, 47546

Orbit data source: Space-Track

COSMOS 2549, 47546 is a payload satellite owned by VVKO VKS (CIS) in LEO that was launched on Tue, 02 Feb 2021 UTC via a SOYUZ-2-1B launch vehicle from the Plesetsk Missile And Space Complex (PKMTR). Payload-class satellites include a variety of spacecraft equipped with specific instruments for various scientific and technological missions. These include communications satellites like Starlink; space stations such as the ISS; scientific satellites like the Hubble; Earth observation satellites from companies like Planet Labs, Umbra, and HawkEye 360; GPS; miniature CubeSats for education and research; and military/defense satellites.

Loading next visibility...
Identifier
47546, 2021-008A
Orbit
LEO
Country
Flag of CISCIS
Related business
Manufacturer
TSSKBP/ARSLO
Mission
Operational Defense Sigint
Bus & Motor
YANTAR'-LOTOS, 11D428
Mass
6,575 kg wet, ~6,500 kg dry
Launch date (UTC)
2021-02-02 (5 years ago)
Launch vehicle
SOYUZ-2-1B
Launch site
Plesetsk Missile And Space Complex (PKMTR)
Object type
Payload
Rocket body
Debris
Shape & HBR
Cyl + 2 Pan, 3.1 m
Radar Cross Section
16.222 m², Large (>1 m²)

Expand to show TLE details & history
Last TLE update: 15 hours ago

TLE from 15 hours ago
0 COSMOS 2549
1 47546U 21008A   26172.90019951 -.00000143  00000-0 -48466-4 0  9991
2 47546  67.1478 333.6059 0005818 261.4235  98.6191 13.97036597274495
Epoch: 2026-06-21T21:36Z
TLE epoch observation values (Epoch: 2026-06-21T21:36:17.237Z)
Latitude
Longitude
99.44024°
Altitude
906.821 km
Speed
7.399 km/s
True Right ascension
22h 14m 25s
True Declination
0° 00' 00"
Sunlit
Object was in daylight at epoch
Visualization orbit readout
Latitude
Unknown
Longitude
Unknown
Altitude
Unknown
Speed
Unknown
Apparent Right ascension
Unknown
Apparent Declination
Unknown
Sunlit
N/A
Visualization observer readout
Local Sidereal Time
23:08:44
Azimuth
Unknown
Elevation
Unknown
Doppler factor
Unknown
Orbital elements
Apogee altitude
906.66 km
Perigee altitude
898.188 km
Semi-major axis
7,280.561 km
Eccentricity
0.00058
Inclination
67.1478°
RAAN
333.6059°
Arg. of periapsis
261.4235°
True anomaly
98.68501°
Mean anomaly
98.6191°
Eccentric anomaly
98.65206°
Mean motion
3.49378 °/min
Orbital period
103.04 mins
BSTAR
-0.000048466
Loading maneuver chart data...
Computing Atmospheric mass density...
Loading historical data...
Loading historical data...
Loading historical data...
Loading historical data...
Loading historical data...
Loading historical data...
Loading historical data...
Other satellites on launch #8 in the year 2021 (2021-02-02 UTC)

Documentation

Showing up to 5 results
|